HR2RCH-13 Weather Reports


time (UTC)temp
C
wind
direction
speed
KPH
gust
KPH
rain 1hr
cm
rain 24hr
cm
rain mn
cm
humidity
%
barometer
mb
20260502200047 -17 228 8.0 27.4 0.00 0.00 0.00 1004.1
20260502194545 -17 149 8.0 17.7 0.00 0.00 0.00 1004.2
20260502193046 -17 146 8.0 16.1 0.00 0.00 0.00 1004.4
20260502191556 -17 236 4.8 14.5 0.00 0.00 0.00 1004.6
20260502190046 -17 123 6.4 14.5 0.00 0.00 0.00 1004.8
20260502184550 -17 195 4.8 12.9 0.00 0.00 0.00 1005.1
20260502183047 -17 274 3.2 11.3 0.00 0.00 0.00 1005.3
20260502181553 -17 258 3.2 9.7 0.00 0.00 0.00 1005.5
20260502163101 -17 248 4.8 16.1 0.00 0.00 0.00 1006.9
20260502161544 -17 263 3.2 12.9 0.00 0.00 0.00 1007.2
20260502151550 -17 274 3.2 16.1 0.00 0.00 0.00 1008.0
20260502123055 -17 324 6.4 16.1 0.00 0.00 0.00 1007.2
20260502121545 -17 10 6.4 22.5 0.00 0.00 0.00 1007.1
20260502114548 -17 40 4.8 12.9 0.00 0.00 0.00 1006.7
20260502113050 -17 354 6.4 12.9 0.00 0.00 0.00 1006.7
20260502111550 -17 295 6.4 11.3 0.00 0.00 0.00 1006.6
20260502110047 -17 33 6.4 14.5 0.00 0.00 0.00 1006.3
20260502104549 -17 41 6.4 16.1 0.00 0.00 0.00 1006.2
20260502103045 -17 335 4.8 12.9 0.00 0.00 0.00 1006.1
20260502101548 -17 38 6.4 14.5 0.00 0.00 0.00 1006.0
20260502070048 -17 0 0.0 1.6 0.00 0.00 0.00 1006.1
20260502064548 -17 0 0.0 3.2 0.00 0.00 0.00 1006.1
20260502063100 -17 74 0.0 3.2 0.00 0.00 0.00 1006.4
20260502061549 -17 0 0.0 3.2 0.00 0.00 0.00 1006.4
20260502060049 -17 63 1.6 3.2 0.00 0.00 0.00 1006.4
20260502054547 -17 0 0.0 3.2 0.00 0.00 0.00 1006.4
20260502053056 -17 71 3.2 4.8 0.00 0.00 0.00 1006.5
20260502051547 -17 126 0.0 3.2 0.00 0.00 0.00 1006.6
20260502050051 -17 0 0.0 3.2 0.00 0.00 0.00 1006.6
20260502044547 -17 86 1.6 4.8 0.00 0.00 0.00 1006.8
20260502043056 -17 0 1.6 3.2 0.00 0.00 0.00 1006.9
20260502041553 -17 0 0.0 3.2 0.00 0.00 0.00 1006.9
20260502040045 -17 0 0.0 3.2 0.00 0.00 0.00 1006.7
20260502034547 -17 0 0.0 3.2 0.00 0.00 0.00 1006.6
20260502033047 -17 6 1.6 4.8 0.00 0.00 0.00 1006.5
20260502031546 -17 70 0.0 3.2 0.00 0.00 0.00 1006.2
20260502030049 -17 0 0.0 3.2 0.00 0.00 0.00 1005.9
20260502024546 -17 0 0.0 1.6 0.00 0.00 0.00 1005.9
20260502023049 -17 0 0.0 6.4 0.00 0.00 0.00 1005.7
20260502021547 -17 94 1.6 4.8 0.00 0.00 0.00 1005.7
20260502020053 -17 120 3.2 8.0 0.00 0.00 0.00 1005.6
20260502014546 -17 112 4.8 8.0 0.00 0.00 0.00 1005.5
20260502013051 -17 168 3.2 8.0 0.00 0.00 0.00 1005.3
20260502011550 -17 221 3.2 8.0 0.00 0.00 0.00 1005.2
20260502010045 -17 156 3.2 16.1 0.00 0.00 0.00 1005.1
20260502004549 -17 148 6.4 14.5 0.00 0.00 0.00 1004.9
20260502003044 -17 166 4.8 14.5 0.00 0.00 0.00 1004.7
20260502001544 -17 161 6.4 14.5 0.00 0.00 0.00 1004.6
20260502000058 -17 218 8.0 19.3 0.00 0.00 0.00 1004.3
20260501234551 -17 190 4.8 11.3 0.00 0.00 0.00 1004.1
20260501233052 -17 191 11.3 20.9 0.00 0.00 0.00 1003.7
20260501231634 -17 218 6.4 20.9 0.00 0.00 0.00 1003.6
20260501224604 -17 104 9.7 17.7 0.00 0.00 0.00 1003.2
20260501223052 -17 246 9.7 20.9 0.00 0.00 0.00 1002.9
20260501221604 -17 196 8.0 29.0 0.00 0.00 0.00 1002.7
20260501220049 -17 151 8.0 19.3 0.00 0.00 0.00 1002.7
20260501214544 -17 198 8.0 20.9 0.00 0.00 0.00 1002.5
20260501213050 -17 193 6.4 14.5 0.00 0.00 0.00 1002.6
20260501211604 -17 204 9.7 20.9 0.00 0.00 0.00 1002.5
20260501210051 -17 184 11.3 22.5 0.00 0.00 0.00 1002.5
20260501204549 -17 173 4.8 17.7 0.00 0.00 0.00 1002.5
20260501203048 -17 253 6.4 16.1 0.00 0.00 0.00 1002.8
20260501201549 -17 179 6.4 14.5 0.00 0.00 0.00 1003.0